CDT,Max TemperatureF,Mean TemperatureF,Min TemperatureF,Max Dew PointF,MeanDew PointF,Min DewpointF,Max Humidity, Mean Humidity, Min Humidity, Max Sea Level PressureIn, Mean Sea Level PressureIn, Min Sea Level PressureIn, Max VisibilityMiles, Mean VisibilityMiles, Min VisibilityMiles, Max Wind SpeedMPH, Mean Wind SpeedMPH, Max Gust SpeedMPH,PrecipitationIn, CloudCover, Events, WindDirDegrees
2012-8-1,87,77,67,74,67,60,90,73,55,29.84,29.78,29.71,,,,16,8,21,0.00,,,358
2012-8-2,85,71,57,66,62,56,97,72,47,29.86,29.83,29.80,,,,13,5,15,0.00,,,24
2012-8-3,89,76,62,70,65,60,93,70,46,29.81,29.70,29.55,,,,36,9,48,0.09,,,172
2012-8-4,76,65,53,60,56,52,93,71,49,30.06,29.86,29.75,,,,30,15,36,0.00,,,311
2012-8-5,79,63,47,58,51,46,100,67,33,30.17,30.10,30.04,,,,16,6,20,0.00,,,273
2012-8-6,89,72,54,67,60,53,93,68,43,30.03,29.95,29.90,,,,10,4,13,0.00,,,162
2012-8-7,85,72,59,64,60,54,97,67,37,30.00,29.95,29.92,,,,10,5,15,0.00,,,59
2012-8-8,75,67,58,65,63,57,100,84,68,30.03,29.96,29.89,,,,17,7,24,0.01,,,43
2012-8-9,75,66,56,62,57,54,97,73,49,30.12,30.07,30.01,,,,21,9,25,0.00,,,356
2012-8-10,76,62,48,56,53,48,100,72,43,30.21,30.13,30.06,,,,13,4,20,0.00,,,155
2012-8-11,71,59,46,60,54,46,100,79,57,30.07,30.02,29.96,,,,16,8,21,0.30,,,164
2012-8-12,70,63,56,59,57,55,100,83,66,30.05,30.00,29.96,,,,10,5,14,0.43,,,133
2012-8-13,77,66,54,61,56,53,93,70,46,30.05,30.01,29.97,,,,14,6,17,0.00,,,342
2012-8-14,71,62,52,61,56,51,100,83,66,29.99,29.89,29.77,,,,14,5,18,0.00,,,159
2012-8-15,86,72,57,70,61,55,100,80,59,29.90,29.71,29.62,,,,30,11,38,0.00,,,172
2012-8-16,70,59,47,54,46,39,86,60,33,30.09,30.01,29.91,,,,25,15,32,0.00,,,338
2012-8-17,76,59,42,53,45,41,96,65,33,30.13,30.07,30.00,,,,10,3,15,0.00,,,297
2012-8-18,80,63,46,54,49,44,93,62,30,30.01,29.99,29.95,,,,20,5,24,0.00,,,319
2012-8-19,76,63,49,57,52,44,100,67,33,30.06,30.02,29.99,,,,15,5,17,0.02,,,5
2012-8-20,78,61,44,55,49,43,93,65,36,30.03,30.00,29.96,,,,10,2,13,0.00,,,110
2012-8-21,85,66,46,55,50,45,93,61,28,30.00,29.95,29.89,,,,13,5,18,0.00,,,193
2012-8-22,86,68,50,64,58,50,100,73,46,29.89,29.80,29.72,,,,15,5,21,0.00,,,146
2012-8-23,91,76,60,66,61,54,93,65,37,29.76,29.71,29.68,,,,23,6,30,0.00,,,185
2012-8-24,95,77,59,67,62,54,97,62,26,29.76,29.70,29.63,,,,22,7,26,0.00,,,172
2012-8-25,79,65,51,67,54,46,90,61,32,29.91,29.81,29.68,,,,17,8,23,0.00,,,351
2012-8-26,87,68,49,59,50,42,100,61,21,30.03,29.95,29.90,,,,16,6,21,0.00,,,294
2012-8-27,84,67,50,59,53,48,89,61,32,30.13,30.07,30.01,,,,12,4,15,0.00,,,146
2012-8-28,88,75,61,70,65,59,100,75,50,30.06,29.93,29.84,,,,17,6,23,0.20,,,134
2012-8-29,92,76,59,69,65,59,100,72,44,29.87,29.74,29.59,,,,16,6,21,0.00,,,163
2012-8-30,82,66,50,66,56,49,93,63,33,29.98,29.75,29.51,,,,23,10,32,0.01,,,353
2012-8-31,84,66,48,52,48,42,93,60,26,30.12,30.06,30.00,,,,15,5,20,0.00,,,125